This demonstration page uses our WeatherBlox Daily Observations layout. Learn more.

Left ArrowRight Arrow

38.20091, -84.87328

Hourly Observations for July 3, 2018

Temp ( °F °C ) Dew Point ( °F °C ) Humidity (%) Winds ( mph kmh ) Pressure ( in mb ) Visibility ( mi km ) Precip ( " mm )
12:53 am 00:53 Clear 73 22.8 70 21.1 90 90 Calm 30.08 1019 10 16 0.00 0.00
1:53 am 01:53 Clear 73 22.8 70 21.1 90 90 Calm 30.08 1019 10 16 0.00 0.00
2:53 am 02:53 Mostly Clear 73 22.8 70 21.1 90 90 NW 3 6 30.08 1019 7 11 0.00 0.00
3:53 am 03:53 Clear 73 22.8 70 21.1 90 90 Calm 30.07 1018 8 13 0.00 0.00
4:53 am 04:53 Clear 74 23.3 70 21.1 88 88 E 3 6 30.07 1018 10 16 0.00 0.00
5:53 am 05:53 Clear 73 22.8 70 21.1 90 90 Calm 30.08 1019 10 16 0.00 0.00
6:53 am 06:53 Sunny 73 22.8 70 21.1 90 90 Calm 30.09 1019 10 16 0.00 0.00
7:53 am 07:53 Sunny 75 23.9 70 21.1 84 84 SE 6 9 30.11 1020 10 16 0.00 0.00
8:53 am 08:53 Sunny 78 25.6 71 21.7 79 79 S 5 7 30.13 1020 10 16 0.00 0.00
9:53 am 09:53 Sunny 80 26.7 72 22.2 76 76 S 3 6 30.15 1021 10 16 0.00 0.00
10:53 am 10:53 Sunny 82 27.8 73 22.8 74 74 Calm 30.14 1021 10 16 0.00 0.00
11:53 am 11:53 Sunny 85 29.4 74 23.3 70 70 VRB 3 6 30.15 1021 10 16 0.00 0.00
12:53 pm 12:53 Mostly Cloudy with Nearby Thunderstorms 85 29.4 77 25 77 77 SSE 7 11 30.14 1021 9 14 0.00 0.03
1:29 pm 13:29 Partly Cloudy with Thunderstorms 85 29.4 72 22.2 65 65 S 10 17 30.15 1021 10 16 0.00 0.03
1:53 pm 13:53 Partly Cloudy with Thunderstorms 79 26.1 68 20 69 69 ESE 9 15 30.16 1021 10 16 0.00 0.03
2:09 pm 14:09 Mostly Cloudy with Nearby Thunderstorms 78 25.6 69 20.6 74 74 SSE 7 11 30.15 1021 10 16 0.00 0.03
2:29 pm 14:29 Partly Cloudy with Thunderstorms 79 26.1 70 21.1 74 74 SSW 6 9 30.15 1021 10 16 0.00 0.03
2:53 pm 14:53 Mostly Sunny 79 26.1 70 21.1 74 74 WSW 3 6 30.14 1021 10 16 0.00 0.03
3:29 pm 15:29 Sunny with Nearby Thunderstorms 79 26.1 71 21.7 77 77 WNW 6 9 30.15 1021 10 16 0.00 0.00
3:44 pm 15:44 Sunny 80 26.7 72 22.2 76 76 NNW 7 11 30.15 1021 10 16 0.00 0.00
3:53 pm 15:53 Sunny 80 26.7 72 22.2 76 76 NNW 6 9 30.15 1021 10 16 0.00 0.00
4:53 pm 16:53 Sunny 81 27.2 71 21.7 72 72 NNW 5 7 30.14 1021 10 16 0.00 0.00
5:53 pm 17:53 Sunny 81 27.2 72 22.2 74 74 Calm 30.14 1021 10 16 0.00 0.00
6:53 pm 18:53 Sunny 82 27.8 71 21.7 69 69 N 3 6 30.13 1020 10 16 0.00 0.00
7:53 pm 19:53 Sunny 80 26.7 72 22.2 76 76 Calm 30.12 1020 10 16 0.00 0.00
8:53 pm 20:53 Sunny 80 26.7 73 22.8 79 79 N 3 6 30.13 1020 10 16 0.00 0.00
9:53 pm 21:53 Clear 78 25.6 72 22.2 82 82 NE 3 6 30.14 1021 10 16 0.00 0.00
10:53 pm 22:53 Clear 78 25.6 71 21.7 79 79 NE 3 6 30.16 1021 10 16 0.00 0.00
11:53 pm 23:53 Clear 76 24.4 71 21.7 85 85 Calm 30.16 1022 10 16 0.00 0.00

Powered by AerisWeather